RH
46 28 30 23 20 17 19 22 23 28 24 24 25 22 22 31 27 29 69 73 76 78 76 79 76 77 74 74 72 73 77 81 82 84 95 95 95 92 95 95 94 94 94 92 94 94 80 72 72
36 28 24 17 16 15 15 22 26 25 28 34 35 36 32 29 49 57 64 78 76 77 77 77 72 77 76 76 76 74 74 78 77 79 84 95 95 95 95 95 96 93 81 73 71 58 70 69 68
28 21 20 17 15 13 15 23 24 28 33 28 29 34 34 29 45 48 70 82 82 81 86 90 78 78 79 81 80 78 78 76 78 79 80 89 91 96 85 67 66 68 71 72 77 75 75 73 71
26 18 14 14 14 17 19 22 25 27 31 29 26 29 45 50 46 53 74 80 80 84 86 87 80 80 80 82 82 80 79 80 80 78 82 86 92 86 79 54 55 62 71 82 69 63 64 67 66
21 16 13 16 16 17 18 24 26 22 21 22 29 29 36 54 68 71 76 79 77 84 87 89 79 80 79 82 80 80 78 80 82 82 80 82 81 86 88 71 58 56 57 55 56 57 56 56 56
19 17 14 13 14 17 18 23 22 18 19 21 29 29 30 60 70 73 77 80 86 86 93 93 81 77 77 78 77 75 73 73 81 83 82 84 84 80 83 73 58 58 61 65 68 69 66 60 51
20 17 15 15 14 16 16 18 19 15 17 20 23 22 29 52 68 79 80 80 83 85 83 88 89 82 73 72 74 72 76 78 78 79 80 80 80 80 79 73 69 71 79 81 86 84 84 80 76
19 17 19 16 14 15 13 13 12 13 13 21 24 19 18 38 74 81 83 81 75 79 82 81 84 85 88 88 72 75 77 80 80 81 81 80 79 80 78 77 78 80 79 79 78 79 79 81 79
21 17 16 16 17 14 15 13 14 13 13 18 24 17 31 53 75 80 82 85 76 82 82 85 87 87 88 90 78 80 80 80 81 81 79 81 93 91 89 78 79 79 79 79 73 72 67 67 73
22 21 16 14 13 15 14 14 14 14 14 14 16 23 52 66 71 72 73 74 75 73 80 81 86 86 88 84 88 89 86 92 92 92 93 89 94 86 89 80 83 82 78 75 74 72 71 79 83
24 20 17 16 15 17 16 15 15 15 16 12 12 12 39 61 65 69 64 63 69 72 73 83 88 88 87 84 86 85 86 88 90 92 93 95 94 93 91 88 88 92 84 88 86 84 84 90 86
19 19 17 22 26 19 18 17 16 16 12 12 14 13 33 52 58 62 60 65 70 79 74 81 83 88 86 84 82 84 81 86 86 94 93 91 90 94 92 90 93 92 92 89 88 82 86 85 86
19 19 22 23 22 18 20 17 14 16 13 14 16 24 30 39 49 57 58 59 67 73 74 79 81 83 88 88 87 86 84 81 83 88 94 96 93 92 93 93 92 92 90 87 82 80 78 75 77
22 21 21 23 20 21 23 21 24 17 18 18 19 20 28 38 47 55 62 59 64 66 68 76 85 84 89 88 90 87 88 84 81 79 82 91 90 88 84 83 85 84 85 80 78 75 77 77 80
24 23 23 22 20 21 24 24 26 17 19 19 19 18 26 39 46 51 53 53 51 55 62 72 85 87 89 89 92 93 91 85 77 76 84 86 84 83 83 84 85 87 84 82 77 74 74 71 74
25 28 26 26 25 25 26 21 18 17 20 18 17 17 18 29 41 45 45 47 47 47 56 70 87 90 90 89 90 91 91 84 76 71 72 62 59 67 78 78 80 82 80 76 74 74 74 73 71
31 26 29 28 26 27 27 23 18 19 22 18 16 17 18 18 23 37 42 44 42 44 50 65 85 89 91 88 88 89 88 81 71 67 65 57 51 50 63 65 69 68 69 65 64 58 62 57 59
27 28 30 27 28 30 30 27 19 19 21 19 16 15 17 19 19 18 23 25 28 30 42 59 80 87 88 87 87 87 84 78 72 68 66 54 54 45 61 64 68 67 65 63 63 61 63 61 57
30 30 30 28 32 33 27 27 23 19 22 23 19 18 17 17 17 19 20 22 25 27 42 58 77 87 85 83 79 77 74 76 73 70 59 57 50 48 51 63 66 65 64 64 64 64 64 61 65
35 32 31 31 34 34 29 31 24 20 20 20 20 18 18 19 19 20 23 25 28 30 49 61 76 84 82 77 73 69 69 69 67 70 58 52 52 48 51 61 64 62 66 66 67 70 62 63 67
33 31 32 32 34 37 35 24 23 20 22 21 21 20 19 21 22 23 24 26 32 39 53 61 75 84 81 78 75 67 66 66 71 68 66 54 52 48 47 45 53 64 64 66 69 71 70 58 66
37 31 33 38 36 42 34 35 21 19 20 19 17 18 19 20 24 24 25 28 37 42 56 67 76 84 82 80 75 69 61 58 60 64 67 60 51 53 50 45 45 52 64 71 70 72 72 73 60
39 38 39 43 44 46 39 46 20 24 21 17 14 18 19 21 23 25 28 28 34 45 63 72 79 85 84 83 74 70 65 62 66 68 68 66 60 60 54 49 47 51 58 72 74 76 77 73 68
44 41 47 54 50 71 33 32 25 20 17 18 18 17 21 22 24 27 28 30 32 48 61 70 78 85 85 83 77 72 68 68 69 70 72 74 74 66 57 51 52 54 60 69 76 80 80 75 74
40 39 71 82 88 57 45 42 26 22 20 22 20 20 23 22 23 26 30 33 32 42 53 67 74 80 84 82 78 75 71 71 71 72 72 74 74 65 59 55 56 59 60 63 68 78 78 77 74
42 40 61 94 50 39 51 47 26 25 25 25 28 31 26 24 24 27 29 31 34 41 45 54 68 73 81 80 78 77 76 77 76 74 74 72 73 69 64 62 63 66 66 65 72 81 80 78 79
46 53 40 46 45 54 32 29 26 25 26 26 28 29 30 29 29 28 29 33 36 41 47 49 53 65 75 80 78 77 77 79 76 68 73 75 71 68 68 69 72 73 74 77 83 81 78 79 79
43 38 54 52 78 42 29 35 33 25 29 32 32 34 32 31 32 32 34 36 42 47 52 58 56 57 70 80 78 75 76 77 75 75 74 68 70 70 71 73 76 81 84 87 85 83 81 80 80
49 47 47 49 56 72 33 22 28 33 34 37 36 37 37 37 35 33 34 36 40 45 54 64 68 67 69 79 81 79 80 74 73 73 74 73 74 71 73 78 82 86 88 88 86 84 83 82 80
44 39 38 48 47 56 55 40 31 33 46 45 46 51 48 46 43 38 36 39 39 46 52 65 76 77 76 79 78 73 73 72 73 73 72 70 74 78 84 86 87 88 88 87 86 83 82 83 87
Wind_Speed
7 4 2 3 4 3 2 3 1 5 5 3 4 2 1 2 2 3 7 7 8 7 6 5 5 4 4 4 4 5 5 6 6 6 5 5 6 7 9 9 10 10 10 10 10 10 10 10 11
4 2 1 1 4 5 4 4 6 5 6 10 8 6 4 2 1 6 8 9 7 6 5 5 5 5 4 5 5 5 5 6 6 7 6 6 6 7 8 8 8 8 9 9 9 9 9 9 9
2 2 2 2 3 4 1 7 6 7 11 5 4 2 2 2 5 7 6 10 8 6 5 4 5 5 5 6 6 5 5 6 5 6 6 7 7 7 6 6 6 7 7 8 8 9 8 8 9
1 2 2 5 5 1 1 7 5 9 6 4 2 3 2 1 5 6 11 9 8 6 5 5 5 6 6 6 6 6 6 5 5 5 5 6 5 6 6 5 6 6 7 6 7 7 7 7 7
2 2 4 4 3 1 3 4 7 7 5 6 7 3 2 3 6 9 11 9 7 6 6 5 6 6 6 6 6 6 5 5 4 4 4 3 2 2 3 4 5 5 6 6 7 7 7 7 6
2 2 4 7 3 3 3 6 7 6 3 5 5 4 2 4 9 11 11 9 7 6 6 6 6 7 6 5 4 4 4 4 4 4 4 4 3 3 3 3 4 4 5 6 6 6 6 6 6
2 2 3 3 2 3 5 8 8 8 7 8 1 4 2 7 10 13 11 9 8 7 6 6 6 7 8 7 5 5 5 5 5 4 4 4 3 3 3 3 3 3 3 4 4 5 6 6 5
1 2 2 3 4 2 5 8 2 8 7 3 3 4 3 10 15 14 11 10 9 7 7 7 7 6 6 6 5 5 6 6 6 5 5 5 4 3 3 3 3 2 2 2 1 2 2 3 5
1 4 4 2 5 3 6 7 3 1 3 4 7 3 3 9 17 14 14 11 11 8 7 6 6 7 7 7 6 6 6 7 6 5 5 4 4 4 3 3 3 3 2 1 2 3 4 8 10
3 3 2 1 1 1 8 6 7 5 7 7 7 6 3 14 17 17 16 15 14 11 9 7 7 7 7 6 7 6 7 5 5 5 4 4 4 4 4 3 2 1 1 3 5 6 7 7 5
2 3 1 1 1 1 5 5 3 5 7 9 9 9 9 14 16 16 15 14 14 11 10 10 8 8 7 6 6 5 6 6 5 4 4 3 3 2 2 1 0 1 2 2 4 6 5 6 4
3 1 1 2 2 2 4 2 4 9 5 3 4 5 12 13 16 17 16 14 13 12 11 11 10 9 8 7 6 6 6 6 6 5 4 4 3 3 1 1 1 2 2 3 4 5 5 5 4
4 4 3 2 3 2 1 6 7 11 11 8 4 7 12 13 18 17 16 15 15 16 15 15 13 12 10 8 8 7 7 5 5 5 4 4 4 3 2 1 1 1 2 3 4 4 5 5 4
2 4 3 4 4 3 4 3 2 5 4 8 11 12 11 14 19 18 19 19 19 18 18 17 16 14 12 10 10 9 8 7 5 4 4 3 3 2 2 1 0 1 2 3 4 6 6 6 4
3 2 2 6 4 3 2 8 10 10 8 8 11 13 13 15 20 24 24 23 22 21 19 20 18 17 15 12 10 9 9 8 6 5 4 3 2 1 1 1 0 2 3 3 3 5 5 5 4
3 2 4 4 5 2 4 11 6 6 9 11 12 14 15 17 23 23 23 23 21 20 21 21 19 18 16 13 12 11 10 8 7 6 5 4 3 2 0 0 1 2 2 3 4 4 5 6 6
3 4 6 2 4 1 7 7 0 4 7 10 11 12 14 14 17 22 22 22 20 21 20 21 20 19 18 14 12 11 10 8 7 7 6 4 3 1 1 1 1 2 2 3 4 4 5 6 7
4 5 4 6 2 4 8 17 14 7 7 11 13 13 13 15 18 21 20 19 19 18 19 20 19 19 17 14 11 9 8 8 7 7 6 6 4 3 2 1 1 1 2 3 4 4 4 4 6
1 2 5 2 2 3 10 15 19 14 13 17 19 18 18 20 18 19 18 17 16 16 17 19 20 20 18 15 13 11 11 10 9 9 9 7 5 4 2 2 2 2 1 3 3 3 4 5 4
5 7 9 3 1 3 11 18 19 20 15 16 16 15 17 17 17 19 19 16 16 18 18 20 21 21 19 15 13 9 11 10 9 10 10 8 7 5 4 4 4 3 3 4 3 3 4 5 5
7 10 6 4 2 2 10 14 8 2 4 9 13 14 14 13 14 15 18 20 17 18 20 22 23 23 22 18 16 14 11 8 10 11 10 11 9 7 6 6 4 4 4 4 5 5 5 7 6
10 7 5 4 3 5 4 9 13 7 11 12 12 11 12 13 12 10 16 22 22 21 19 21 24 25 24 23 19 18 14 12 12 10 11 12 11 9 8 6 5 5 5 5 5 6 6 6 8
1 3 4 2 3 4 5 5 6 2 13 16 14 3 6 6 7 9 12 19 19 17 18 19 20 21 21 21 19 17 14 11 8 10 10 11 10 9 8 7 6 7 6 7 7 7 7 7 8
11 5 4 4 1 4 8 10 16 8 9 4 3 4 9 7 1 5 9 16 17 16 17 18 20 21 22 23 23 21 18 14 12 11 11 10 9 8 8 8 8 8 8 9 8 8 8 9 9
3 5 2 3 3 5 4 7 15 18 14 10 13 9 9 9 5 3 8 14 16 16 15 16 19 21 23 24 23 22 19 16 15 13 12 11 9 9 9 10 11 10 10 10 9 8 8 8 9
9 4 4 4 3 2 2 7 5 9 13 8 7 7 8 7 5 5 7 11 12 14 15 15 16 18 21 24 23 21 18 15 14 13 12 10 9 9 9 11 12 12 12 11 10 8 8 8 8
6 8 1 4 2 4 7 8 10 13 13 10 13 12 12 10 8 7 5 9 10 11 12 15 17 20 21 23 21 20 19 17 15 15 13 11 11 10 10 12 12 12 12 10 8 8 7 7 8
3 5 3 2 4 8 5 5 6 4 9 11 14 14 14 14 13 9 5 7 10 12 12 14 16 18 20 22 22 20 18 17 16 15 14 13 11 11 11 12 12 12 11 9 8 7 7 7 8
5 4 2 2 3 4 8 3 2 5 10 11 13 13 14 13 12 11 11 9 8 11 10 11 13 15 17 19 19 18 18 19 17 16 14 12 11 12 13 13 12 11 10 8 7 7 7 7 8
3 6 12 6 7 5 4 8 6 11 13 13 12 14 15 15 14 12 11 8 8 10 9 12 12 14 15 16 19 21 18 18 16 15 13 11 12 12 12 12 11 10 9 9 9 8 7 8 8
Wind_Direction
343 348 343 243 225 250 167 161 61 147 148 93 115 223 204 343 305 12 132 141 147 136 133 130 140 140 140 125 122 120 124 126 119 107 113 117 102 101 98 92 86 83 81 79 85 91 90 74 72
346 2 276 259 255 228 154 156 192 140 114 124 128 141 185 136 116 123 148 153 150 134 131 132 142 142 133 126 119 113 119 122 117 112 109 122 113 104 97 94 93 94 91 88 85 86 88 83 81
43 47 261 262 254 257 200 178 153 130 147 162 149 262 154 143 138 143 131 151 144 136 134 133 132 137 136 128 126 122 116 116 116 119 116 130 124 118 116 102 95 87 81 79 76 72 71 73 73
301 184 156 251 255 204 338 158 145 144 157 213 221 177 195 194 136 151 150 151 144 136 126 128 136 136 133 131 129 126 114 110 116 120 117 122 132 131 119 97 99 95 80 68 67 69 64 61 62
49 249 230 245 224 226 193 168 164 172 156 175 192 156 216 174 145 146 154 158 151 142 130 122 143 136 134 132 133 121 116 109 105 109 116 119 116 139 138 94 92 91 90 77 62 57 50 48 45
200 284 233 240 219 175 189 168 171 196 182 152 196 167 182 132 161 159 166 162 154 148 139 133 144 150 148 141 128 119 128 133 127 121 114 117 102 100 123 94 102 99 88 80 68 58 50 39 34
272 234 280 277 214 200 182 161 195 195 193 201 162 207 113 180 167 165 168 168 161 153 150 143 136 138 147 141 132 123 121 130 140 142 135 134 131 116 116 98 97 94 91 92 69 56 28 23 16
201 252 222 220 207 177 149 174 214 202 203 76 209 224 168 170 167 165 172 176 172 165 163 166 158 153 144 139 153 140 130 128 129 133 132 132 131 141 150 133 146 155 180 160 62 16 4 345 339
260 235 248 230 186 129 145 189 150 308 212 206 193 251 71 159 163 169 179 185 187 182 178 172 169 161 156 145 149 138 133 133 129 128 132 123 121 117 109 163 178 184 200 266 306 313 315 326 318
247 245 248 8 203 230 170 194 172 203 204 222 224 206 160 164 174 183 191 194 198 195 191 186 184 174 162 156 150 147 140 135 131 127 131 137 121 140 138 154 168 198 251 305 312 316 324 342 323
172 270 11 206 232 256 169 202 188 223 226 229 229 223 187 182 189 197 203 201 203 201 199 194 190 188 181 168 158 161 158 156 152 157 166 155 154 164 156 149 24 326 351 356 353 352 354 355 341
225 229 206 148 163 185 190 156 224 227 244 154 253 219 188 193 200 202 207 202 200 197 203 197 193 188 187 174 170 178 172 168 169 172 177 182 191 191 189 223 295 317 331 337 345 339 339 340 344
212 177 185 158 183 223 203 236 267 247 237 221 228 205 203 200 203 205 210 208 205 205 203 200 192 190 188 183 186 187 186 176 173 170 183 185 198 199 192 218 293 280 322 324 323 318 315 320 316
133 174 172 190 194 217 249 238 267 233 196 221 217 218 207 202 200 201 207 210 210 211 208 202 200 196 193 195 194 189 186 187 179 173 175 173 180 186 176 198 308 347 344 329 316 304 308 304 299
123 206 220 210 200 229 246 238 230 242 209 240 214 214 214 209 202 208 209 210 209 210 207 204 200 198 198 200 195 194 192 186 182 174 170 156 149 164 178 227 337 285 299 313 308 302 305 299 296
195 227 236 148 185 159 226 265 223 203 213 230 216 216 218 218 213 215 215 215 212 209 206 203 199 198 198 197 195 194 193 187 180 167 157 170 179 174 140 299 309 293 321 318 318 314 305 292 294
206 250 223 229 203 227 225 278 238 211 236 249 234 229 230 232 226 225 222 221 218 216 211 204 199 197 195 196 194 192 187 181 178 175 173 180 180 197 166 204 251 277 308 320 322 329 317 300 294
219 228 223 255 111 241 239 258 266 240 251 256 260 252 241 238 233 229 226 223 222 221 216 209 201 196 192 188 183 184 185 190 190 186 180 192 203 228 205 204 224 275 324 318 316 302 299 294 294
78 263 266 203 92 275 257 273 279 275 254 257 254 250 248 241 233 226 224 220 216 214 210 207 199 193 186 184 182 194 197 196 198 196 199 200 212 226 225 203 214 240 253 265 269 272 271 270 273
215 246 255 251 197 261 294 287 280 272 254 253 262 256 249 248 233 223 216 208 207 207 204 201 199 193 192 193 195 193 188 201 202 202 204 209 214 227 225 211 211 225 229 246 246 247 264 269 257
224 235 230 265 288 201 301 281 239 221 239 241 252 252 257 246 238 225 212 202 202 202 201 199 196 195 195 193 192 189 186 192 198 207 209 214 214 220 216 216 215 225 230 233 239 243 247 264 256
237 200 183 178 237 270 328 293 263 256 261 255 263 243 260 253 230 220 208 200 195 201 199 198 196 196 196 195 193 194 197 197 204 200 201 207 211 215 220 222 227 232 238 236 237 237 239 242 256
350 113 138 132 208 316 196 259 276 184 270 277 280 16 353 302 246 220 213 205 195 193 195 198 200 199 198 199 201 201 206 205 192 194 194 201 209 217 225 226 231 237 241 239 236 237 237 239 246
140 104 79 67 130 240 237 218 280 280 284 289 309 28 26 21 271 243 225 201 191 187 191 196 198 201 200 201 203 203 205 197 198 200 200 202 207 220 231 237 239 241 240 239 238 237 238 241 244
204 169 224 221 184 248 17 223 253 300 284 277 288 335 352 332 320 253 199 200 195 194 195 196 199 202 203 205 207 207 209 207 209 206 206 202 209 226 237 239 241 242 245 245 244 242 242 244 247
187 228 218 237 246 324 153 228 243 281 299 296 332 329 304 326 313 274 239 221 214 203 198 198 203 210 210 210 209 209 209 209 212 213 214 213 218 227 234 240 238 237 240 243 243 241 243 246 250
160 209 50 283 154 263 242 243 281 272 284 6 33 36 16 355 350 325 267 233 232 229 223 217 212 210 210 210 210 211 210 210 212 219 221 224 230 232 240 242 240 239 242 241 236 241 246 247 251
238 136 144 204 251 257 208 259 245 300 20 39 40 25 18 21 14 1 341 271 248 239 228 227 227 224 215 208 206 207 208 211 216 214 219 228 236 240 243 241 238 238 239 236 235 245 247 247 251
157 199 198 267 214 271 286 248 96 48 51 33 24 21 18 19 12 5 349 327 264 260 254 246 238 223 215 209 207 204 204 210 212 214 219 226 234 239 238 233 228 224 222 224 231 242 247 246 249
230 225 197 223 217 239 283 262 142 71 46 22 13 5 354 347 351 351 352 335 289 267 252 241 241 228 217 212 207 205 206 209 213 217 219 227 235 236 229 222 218 212 210 214 221 236 251 251 246